[[{"header":{"parameterUnit":"m.s-1","parameterCategory":1,"la1":30.2991,"la2":30.254,"lo1":-89.0895,"lo2":-89.0444,"dy":0.0017,"dx":0.0017,"nx":28,"ny":28,"refTime":"2026-01-02T09:00:00:Z","depth":0,"parameterNumber":2,"parameterNumberName":"U-component_of_WINDS"},"data":[0,0,0,0,0,0,0,0,0,0,0,0,0,0,0,0,0,0,0,0,0,0,0,0,0,0,0,0,0,0,0,0,0,0,0,0,0,0,0,0,0,0,0,0,0,0,0,0,0,0,0,0,0,0,0,0,0,0,2.9858,2.9859,0,2.9991,2.9992,2.9994,2.9987,2.9986,2.9984,2.9982,3.0122,3.0128,3.0133,0,0,0,0,0,0,0,0,0,0,0,0,0,2.9601,2.9606,2.9857,2.9859,2.9861,2.999,2.9992,2.9994,2.9988,2.9985,2.9983,2.9981,3.0121,3.0127,3.0134,0,0,0,0,0,0,0,0,0,0,0,0,0,2.9722,2.9608,2.9857,2.9873,2.9876,2.999,2.9992,2.9995,2.9988,2.9985,2.9983,2.998,3.0118,3.0126,3.0135,3.0243,0,0,3.016,3.0163,0,0,0,0,0,0,0,0,2.9715,2.9731,2.9869,2.9872,2.9875,2.9969,2.9954,3.0078,2.9989,2.9946,2.9982,2.9978,3.0074,3.0086,3.0117,3.0249,3.0255,3.0161,3.0166,3.0169,3.0172,0,0,0,0,0,0,0,2.9706,2.9725,2.991,2.9871,2.9875,2.9875,2.9889,2.9977,3.0024,2.9949,2.9949,2.9965,3.0075,3.0109,3.012,3.0258,3.016,3.0168,3.0173,3.0176,3.0486,3.0489,0,0,0,0,0,0,2.9694,2.9718,2.9906,2.9914,2.9786,2.9882,2.9897,2.9942,3.0023,3.0033,2.9967,2.9964,3.0096,3.0111,3.0125,3.0257,3.0169,3.0177,3.0182,3.0483,3.0487,3.049,0,0,0,0,0,0,2.9689,2.9711,2.9901,2.9816,2.984,2.9889,2.994,2.9946,2.998,3.0037,3.0046,2.9993,3.0095,3.0114,3.0214,3.0262,3.0181,3.0188,3.0479,3.0484,3.0488,3.0522,0,0,0,0,0,0,2.9681,2.9709,2.975,2.9817,2.9845,2.9985,2.9943,2.9951,2.9994,2.9991,3.0063,3.0072,3.0094,3.0201,3.0222,3.0272,3.0195,3.0475,3.0481,3.0487,3.0517,3.0528,3.0537,0,0,0,0,0,2.9672,2.9755,2.9752,2.9774,2.9897,2.9988,3.0004,3.0026,2.9998,3.004,3.0076,3.007,3.0254,3.0211,3.0235,3.0288,3.0472,3.0479,3.0486,3.0513,3.0526,3.0537,0,0,0,0,0,0,2.9693,2.9764,2.9761,2.9868,2.9922,2.9987,3.004,3.0039,3.0103,3.0098,3.0124,3.014,3.024,3.0275,3.0226,3.0398,3.0359,3.0372,3.0371,3.0384,3.0394,3.0384,3.0201,0,0,0,0,0,2.9709,2.9776,2.9836,2.9924,2.9951,2.9991,3.0032,3.0044,3.0102,3.0125,3.0169,3.0226,3.0296,3.0342,3.041,3.0522,3.0538,3.0571,3.0581,3.0589,3.0599,3.0661,3.0676,3.0514,3.0514,3.0514,0,0,2.9745,2.9792,2.9833,2.9929,2.9973,3.0043,3.001,3.0086,3.0139,3.0137,3.0233,3.0267,3.0333,3.0439,3.0488,3.0471,3.0647,3.0598,3.0604,3.061,3.067,3.0685,3.0699,3.0519,3.0518,3.0518,0,0,2.9845,2.9887,2.9966,3.001,3.0075,3.0101,3.012,3.0186,3.0208,3.0305,3.0305,3.0369,3.049,3.0537,3.0576,3.0695,3.0692,3.0717,3.0769,3.0829,3.0841,3.0853,3.0895,3.091,3.0727,3.0727,3.0727,0,2.9881,2.9985,3.0006,3.0082,3.0125,3.0126,3.0206,3.0248,3.0333,3.0363,3.0342,3.0493,3.0538,3.0655,3.0684,3.0716,3.0739,3.0708,3.0838,3.0849,3.086,3.0901,3.0917,3.073,3.0729,3.0729,3.0729,0,3.0027,3.0099,3.0155,3.0236,3.0285,3.0363,3.0396,3.0444,3.0452,3.0481,3.058,3.0633,3.0712,3.0741,3.075,3.086,3.0847,3.0832,3.0794,3.0878,3.0917,3.0932,3.0733,3.0732,3.0732,3.0731,0,0,3.0143,3.0234,3.0254,3.0291,3.0364,3.0421,3.05,3.0575,3.0616,3.0675,3.0742,3.0844,3.083,3.0875,3.089,3.0943,3.1034,3.0921,3.0923,3.094,3.1158,3.1169,3.1186,3.1032,3.1035,3.1038,3.1152,0,3.025,3.0387,3.0409,3.053,3.0598,3.06,3.0668,3.0721,3.0751,3.0813,3.0846,3.0918,3.0895,3.0922,3.0974,3.1011,3.1078,3.1004,3.1095,3.1098,3.1078,3.1206,3.1218,3.1323,3.1168,3.117,3.1172,0,3.0394,3.0455,3.0583,3.0647,3.0676,3.0737,3.0808,3.0868,3.0929,3.0946,3.0997,3.1005,3.1088,3.1047,3.1161,3.111,3.1149,3.1173,3.1178,3.1187,3.114,3.1219,3.1358,3.1373,3.1196,3.1194,3.1192,0,3.0465,3.058,3.0671,3.0703,3.078,3.0823,3.0857,3.0915,3.0959,3.1022,3.1051,3.1124,3.1164,3.122,3.1248,3.1216,3.1361,3.1322,3.1379,3.1378,3.1409,3.1406,3.1556,3.1435,3.1435,3.1434,3.1434,0,3.0582,3.066,3.0704,3.076,3.0848,3.0873,3.096,3.0993,3.1045,3.1108,3.1115,3.1175,3.1209,3.1274,3.1297,3.1388,3.1407,3.1424,3.1429,3.1423,3.1421,3.1448,3.1442,3.1439,3.1438,3.1437,3.1436,0,3.0676,3.0709,3.0809,3.0873,3.0891,3.0953,3.1009,3.1065,3.1094,3.1174,3.1194,3.1241,3.1318,3.1352,3.1447,3.1463,3.1567,3.1567,3.1546,3.1548,3.1602,3.1596,3.1774,3.1798,3.1662,3.1663,3.1664,0,3.0749,3.0808,3.088,3.0922,3.0957,3.1026,3.1071,3.1098,3.1145,3.1219,3.1265,3.1342,3.1405,3.1529,3.1571,3.1645,3.1646,3.1704,3.1657,3.1649,3.1647,3.1642,3.1649,3.1712,3.1713,3.1714,3.1715,0,3.0873,3.0887,3.0951,3.1021,3.1075,3.1132,3.1187,3.1222,3.1258,3.1311,3.1389,3.1438,3.1535,3.1612,3.1687,3.1724,3.1726,3.1729,3.1746,3.174,3.1725,3.1734,3.1568,3.1725,3.1724,3.1723,3.1723,3.1722,3.0959,3.1012,3.107,3.1142,3.1186,3.1239,3.1293,3.1329,3.1395,3.1475,3.1488,3.1571,3.1631,3.1733,3.1773,3.1839,3.1825,3.185,3.1856,3.1861,3.1864,3.1715,3.1853,3.1853,3.1853,3.1853,3.1853,0,3.1083,3.1121,3.1186,3.1264,3.132,3.1317,3.1378,3.1426,3.1499,3.1554,3.1616,3.1706,3.1781,3.183,3.1905,3.1949,3.1952,3.1968,3.1965,3.1973,3.1873,3.185,3.1964,3.1964,3.1964,3.1964,3.1964,3.1964,3.1154,3.1244,3.1265,3.1378,3.1415,3.1496,3.1532,3.158,3.1625,3.1725,3.1786,3.1817,3.187,3.195,3.2018,3.2031,3.2058,3.2075,3.2087,3.1992,3.198,3.1969,3.1948,3.2081,3.2081,3.2182,3.2182,3.2183]},{"header":{"parameterUnit":"m.s-1","parameterCategory":1,"la1":30.2991,"la2":30.254,"lo1":-89.0895,"lo2":-89.0444,"dy":0.0017,"dx":0.0017,"nx":28,"ny":28,"refTime":"2026-01-02T09:00:00:Z","depth":0,"parameterNumber":3,"parameterNumberName":"V-component_of_WINDS"},"data":[0,0,0,0,0,0,0,0,0,0,0,0,0,0,0,0,0,0,0,0,0,0,0,0,0,0,0,0,0,0,0,0,0,0,0,0,0,0,0,0,0,0,0,0,0,0,0,0,0,0,0,0,0,0,0,0,0,0,3.9049,3.9051,0,3.9281,3.9284,3.9287,3.9325,3.9323,3.9321,3.9319,3.9562,3.957,3.9578,0,0,0,0,0,0,0,0,0,0,0,0,0,3.8641,3.8649,3.9048,3.9051,3.9054,3.9281,3.9284,3.9287,3.9325,3.9323,3.932,3.9318,3.9559,3.9569,3.9579,0,0,0,0,0,0,0,0,0,0,0,0,0,3.8841,3.8651,3.9048,3.91,3.9107,3.928,3.9284,3.9288,3.9326,3.9322,3.9319,3.9317,3.9556,3.9568,3.958,3.9719,0,0,3.9619,3.9624,0,0,0,0,0,0,0,0,3.8829,3.8856,3.909,3.9097,3.9105,3.9271,3.923,3.9433,3.9326,3.9243,3.9319,3.9315,3.9468,3.9487,3.9538,3.973,3.9741,3.962,3.9627,3.9633,3.9636,0,0,0,0,0,0,0,3.8815,3.8846,3.9141,3.9093,3.9102,3.9114,3.9139,3.9268,3.937,3.925,3.9253,3.928,3.9471,3.9526,3.9544,3.9744,3.9619,3.9631,3.9638,3.9643,4.0065,4.0069,0,0,0,0,0,0,3.8792,3.8834,3.9133,3.9148,3.8957,3.9123,3.9151,3.9221,3.9368,3.9388,3.9282,3.9281,3.9506,3.9529,3.9553,3.9727,3.9633,3.9644,3.9652,4.0061,4.0066,4.007,0,0,0,0,0,0,3.8783,3.8818,3.9124,3.8992,3.9032,3.9134,3.9211,3.9227,3.9281,3.9393,3.9412,3.9319,3.9504,3.9535,3.9678,3.9736,3.965,3.9662,4.0057,4.0063,4.0068,4.0075,0,0,0,0,0,0,3.8771,3.8814,3.8867,3.8993,3.9038,3.9243,3.9215,3.9234,3.9302,3.9302,3.9432,3.9451,3.9504,3.9659,3.969,3.9752,3.9671,4.0052,4.006,4.0066,4.007,4.008,4.0089,0,0,0,0,0,3.8756,3.886,3.8869,3.8905,3.9106,3.9247,3.9273,3.9331,3.9307,3.9361,3.9433,3.9447,3.9723,3.9673,3.9709,3.9775,4.0049,4.0058,4.0066,4.0066,4.0078,4.0089,0,0,0,0,0,0,3.874,3.8877,3.8889,3.9037,3.9129,3.9253,3.9324,3.9342,3.9445,3.9441,3.951,3.9539,3.9679,3.9741,3.9682,3.9918,3.9885,3.99,3.9873,3.9885,3.9894,3.9878,3.9682,0,0,0,0,0,3.8753,3.8854,3.8969,3.9089,3.9134,3.9221,3.9284,3.9321,3.9421,3.9461,3.9543,3.964,3.975,3.9821,3.9927,4.0078,4.0109,4.0142,4.0151,4.0158,4.0172,4.026,4.0276,4.0097,4.0097,4.0097,0,0,3.8782,3.887,3.893,3.9088,3.9164,3.9269,3.9254,3.9365,3.9445,3.9478,3.9618,3.9682,3.9796,3.9944,4.0013,4.0,4.0228,4.0168,4.0173,4.0184,4.027,4.0287,4.0302,4.0103,4.0102,4.0101,0,0,3.889,3.8965,3.9073,3.915,3.9265,3.9322,3.9348,3.9469,3.9512,3.9654,3.9681,3.9777,3.9963,4.0044,4.011,4.0248,4.0265,4.0281,4.033,4.0415,4.0429,4.0442,4.0495,4.0512,4.0293,4.0293,4.0293,0,3.8912,3.907,3.9127,3.9239,3.9308,3.9341,3.9453,3.9525,3.967,3.9719,3.97,3.9936,4.0015,4.0184,4.0217,4.0268,4.0302,4.0268,4.0422,4.0436,4.0449,4.05,4.0519,4.0295,4.0295,4.0294,4.0294,0,3.9093,3.9203,3.9277,3.9415,3.9493,3.9604,3.968,3.9752,3.9782,3.9841,3.9986,4.0081,4.0209,4.0251,4.0281,4.0425,4.0413,4.0408,4.0376,4.0466,4.0516,4.0535,4.0297,4.0296,4.0296,4.0295,0,0,3.9199,3.9367,3.9394,3.9458,3.9587,3.9674,3.9787,3.9911,3.9973,4.0071,4.017,4.0327,4.0323,4.0397,4.0437,4.051,4.0618,4.0497,4.05,4.0519,4.0786,4.0792,4.0813,4.0629,4.0633,4.0636,4.0778,0,3.9324,3.9526,3.9581,3.9753,3.9857,3.9889,3.9988,4.008,4.0138,4.0236,4.0301,4.0412,4.0396,4.0442,4.0516,4.0589,4.0673,4.0579,4.0725,4.0729,4.0698,4.0839,4.0845,4.0975,4.0797,4.08,4.0803,0,3.9498,3.96,3.9781,3.9899,3.9945,4.0033,4.0152,4.0243,4.0348,4.0386,4.0469,4.0502,4.0623,4.0583,4.0753,4.0688,4.075,4.0795,4.0802,4.082,4.0774,4.0865,4.1017,4.1038,4.0833,4.0831,4.0828,0,3.9561,3.9743,3.9876,3.9929,4.0069,4.0131,4.0192,4.0294,4.0365,4.0469,4.0517,4.0633,4.0699,4.0789,4.0854,4.0818,4.102,4.0984,4.1057,4.1056,4.1101,4.1098,4.127,4.1135,4.1135,4.1135,4.1134,0,3.9697,3.9808,3.9906,3.9989,4.0115,4.0177,4.03,4.0363,4.0454,4.055,4.0585,4.0675,4.0753,4.0855,4.0906,4.1042,4.107,4.1106,4.1119,4.1105,4.1101,4.1149,4.1143,4.114,4.1139,4.1138,4.1137,0,3.979,3.986,4.0008,4.0128,4.0161,4.0248,4.0353,4.0435,4.0493,4.0616,4.0648,4.0741,4.0863,4.0935,4.1089,4.1123,4.1274,4.1281,4.1238,4.1245,4.1316,4.1309,4.1527,4.156,4.14,4.1402,4.1403,0,3.9874,3.996,4.009,4.0156,4.0218,4.0325,4.0398,4.0462,4.0537,4.0664,4.0732,4.0855,4.0957,4.115,4.1233,4.1351,4.1364,4.1432,4.1383,4.1367,4.137,4.1365,4.1376,4.1442,4.1443,4.1444,4.1445,0,4.0017,4.0047,4.015,4.0266,4.0352,4.0446,4.054,4.0593,4.0674,4.0757,4.0881,4.096,4.1117,4.124,4.1366,4.1431,4.1454,4.146,4.1484,4.1472,4.1445,4.1464,4.1265,4.1455,4.1454,4.1454,4.1453,4.1453,4.0111,4.019,4.0294,4.0408,4.0485,4.0573,4.0656,4.0725,4.0829,4.0961,4.0993,4.1124,4.1229,4.14,4.1468,4.1573,4.1562,4.1596,4.1605,4.1614,4.1617,4.1425,4.1596,4.1595,4.1595,4.1595,4.1595,0,4.0259,4.0327,4.0431,4.0562,4.0652,4.0662,4.0767,4.0843,4.0957,4.1052,4.1151,4.1295,4.1415,4.1507,4.163,4.1697,4.171,4.1727,4.1725,4.1741,4.1618,4.1587,4.1715,4.1715,4.1715,4.1715,4.1714,4.1714,4.0347,4.0482,4.0524,4.0699,4.0767,4.0895,4.0954,4.1036,4.1112,4.1271,4.137,4.1428,4.1523,4.1654,4.1765,4.1789,4.1835,4.1851,4.1877,4.1762,4.1749,4.1737,4.1708,4.1859,4.1859,4.1991,4.1993,4.1994]}]]